Weather History for KFFM - March, 2013

Change the Weather History Date:

Wednesday, March 20, 2013

  Actual Average Record
Temperature  
Mean Temperature 2 °F -  
Max Temperature 12 °F - - ()
Min Temperature -7 °F - - ()
Degree Days  
Heating Degree Days 62    
Moisture  
Dew Point -4 °F    
Average Humidity 74    
Maximum Humidity 85    
Minimum Humidity 62    
Precipitation  
Precipitation 0.00 in - - ()
Sea Level Pressure  
Sea Level Pressure 30.26 in    
Wind  
Wind Speed 12 mph (NW)    
Max Wind Speed 20 mph    
Max Gust Speed 24 mph    
Visibility 10 miles    
Events      
T = Trace of Precipitation, MM = Missing Value Source: NWS Daily Summary

Daily Weather History Graph

Daily Weather History Graph

Search for Another Location

Airport or City:

Trip Planner

Search our weather history database for the weather conditions in past years. The results will help you decide how hot, cold, wet, or windy it might be!

Date:

Astronomy

Mar. 20, 2013 Rise Set
Actual Time 7:27 AM CDT 7:37 PM CDT
Civil Twilight 6:57 AM CDT 8:07 PM CDT
Nautical Twilight 6:21 AM CDT 8:42 PM CDT
Astronomical Twilight 5:45 AM CDT 9:19 PM CDT
Moon 12:55 PM CDT (3/20) 3:26 AM CDT (3/20)
Length of Visible Light 13h 10m
Length of Day
12h 10m
First Quarter, 59% of the Moon is Illuminated
Mar 20
First Quarter
Mar 27
Full
Apr 2
Last Quarter
Apr 10
New
Apr 18
First Quarter

Hourly Weather History & Observations

Time (CDT) Temp. Windchill Dew Point Humidity Pressure Visibility Wind Dir Wind Speed Gust Speed Precip Events Conditions
12:13 AM -0.4 °F -16.7 °F -5.8 °F 78% 30.30 in 10.0 mi NW 10.4 mph - N/A   Clear
12:33 AM -0.4 °F -17.6 °F -5.8 °F 78% 30.30 in 10.0 mi NW 11.5 mph - N/A   Clear
12:53 AM 1.4 °F -16.1 °F -2.2 °F 85% 30.30 in 10.0 mi NNW 12.7 mph - N/A   Clear
1:13 AM 1.4 °F -16.1 °F -4.0 °F 78% 30.30 in 10.0 mi NNW 12.7 mph - N/A   Clear
1:33 AM 1.4 °F -16.9 °F -2.2 °F 85% 30.30 in 10.0 mi NNW 13.8 mph - N/A   Clear
1:53 AM -0.4 °F -17.6 °F -5.8 °F 78% 30.30 in 10.0 mi NNW 11.5 mph - N/A   Clear
2:13 AM -0.4 °F -17.6 °F -5.8 °F 78% 30.30 in 10.0 mi NW 11.5 mph - N/A   Clear
2:33 AM -0.4 °F -19.9 °F -5.8 °F 78% 30.30 in 10.0 mi NNW 15.0 mph - N/A   Clear
2:53 AM -2.2 °F -18.0 °F -7.6 °F 78% 30.30 in 10.0 mi NW 9.2 mph - N/A   Clear
3:13 AM -2.2 °F -19.9 °F -7.6 °F 78% 30.31 in 10.0 mi NW 11.5 mph - N/A   Clear
3:33 AM -4.0 °F -25.2 °F -7.6 °F 85% 30.31 in 10.0 mi NW 16.1 mph - N/A   Clear
3:53 AM -2.2 °F -23.5 °F -5.8 °F 85% 30.30 in 10.0 mi NNW 17.3 mph - N/A   Clear
4:13 AM -2.2 °F -22.2 °F -5.8 °F 85% 30.31 in 10.0 mi NW 15.0 mph - N/A   Clear
4:33 AM -2.2 °F -22.9 °F -7.6 °F 78% 30.30 in 10.0 mi NW 16.1 mph - N/A   Clear
4:53 AM -0.4 °F -18.4 °F -5.8 °F 78% 30.30 in 10.0 mi North 12.7 mph - N/A   Clear
5:13 AM -2.2 °F -22.9 °F -7.6 °F 78% 30.30 in 10.0 mi NNW 16.1 mph - N/A   Clear
5:33 AM -0.4 °F -19.9 °F -5.8 °F 78% 30.30 in 10.0 mi NNW 15.0 mph - N/A   Clear
5:53 AM -2.2 °F -22.2 °F -7.6 °F 78% 30.30 in 10.0 mi NNW 15.0 mph - N/A   Clear
6:13 AM -2.2 °F -21.5 °F -7.6 °F 78% 30.31 in 10.0 mi NNW 13.8 mph - N/A   Clear
6:33 AM -2.2 °F -21.5 °F -7.6 °F 78% 30.32 in 10.0 mi NNW 13.8 mph - N/A   Clear
6:53 AM -2.2 °F -20.7 °F -7.6 °F 78% 30.32 in 10.0 mi NW 12.7 mph - N/A   Clear
7:13 AM -7.6 °F -24.6 °F -11.2 °F 84% 30.32 in 10.0 mi NW 9.2 mph - N/A   Clear
7:33 AM -7.6 °F -27.5 °F -11.2 °F 84% 30.32 in 10.0 mi NW 12.7 mph - N/A   Clear
7:53 AM -5.8 °F -26.0 °F -11.2 °F 77% 30.32 in 10.0 mi NW 13.8 mph - N/A   Clear
8:13 AM -4.0 °F -23.0 °F -9.4 °F 78% 30.32 in 10.0 mi NNW 12.7 mph - N/A   Clear
8:33 AM -4.0 °F -21.2 °F -9.4 °F 78% 30.32 in 10.0 mi NW 10.4 mph - N/A   Clear
8:53 AM -4.0 °F -21.2 °F -9.4 °F 78% 30.32 in 10.0 mi NW 10.4 mph - N/A   Clear
9:13 AM -4.0 °F -19.0 °F -9.4 °F 78% 30.32 in 10.0 mi NW 8.1 mph - N/A   Clear
9:33 AM -2.2 °F -20.7 °F -9.4 °F 71% 30.31 in 10.0 mi NNW 12.7 mph - N/A   Clear
9:53 AM -2.2 °F -20.7 °F -9.4 °F 71% 30.31 in 10.0 mi NW 12.7 mph - N/A   Clear
10:13 AM -2.2 °F -20.7 °F -7.6 °F 78% 30.31 in 10.0 mi NNW 12.7 mph - N/A   Clear
10:33 AM -0.4 °F -17.6 °F -7.6 °F 72% 30.30 in 10.0 mi NW 11.5 mph - N/A   Clear
10:53 AM -0.4 °F -16.7 °F -5.8 °F 78% 30.30 in 10.0 mi NW 10.4 mph - N/A   Clear
11:13 AM -0.4 °F -17.6 °F -5.8 °F 78% 30.30 in 10.0 mi NW 11.5 mph - N/A   Clear
11:34 AM 1.4 °F -15.3 °F -5.8 °F 72% 30.30 in 10.0 mi NW 11.5 mph - N/A   Clear
11:53 AM 3.2 °F -14.6 °F -4.0 °F 72% 30.29 in 10.0 mi NW 13.8 mph - N/A   Clear
12:11 PM 3.2 °F -13.9 °F -2.2 °F 78% 30.29 in 10.0 mi NW 12.7 mph - N/A   Clear
12:53 PM 6.8 °F -10.7 °F -0.4 °F 72% 30.27 in 10.0 mi NW 15.0 mph - N/A   Clear
1:13 PM 6.8 °F -9.3 °F -0.4 °F 72% 30.27 in 10.0 mi NW 12.7 mph - N/A   Clear
1:33 PM 8.6 °F -6.3 °F 1.4 °F 73% 30.26 in 10.0 mi NW 11.5 mph - N/A   Clear
1:53 PM 8.6 °F -7.7 °F 1.4 °F 73% 30.26 in 10.0 mi NW 13.8 mph - N/A   Clear
2:13 PM 8.6 °F -7.7 °F 1.4 °F 73% 30.25 in 10.0 mi NW 13.8 mph - N/A   Clear
2:33 PM 10.4 °F -5.4 °F 3.2 °F 73% 30.24 in 10.0 mi NW 13.8 mph - N/A   Clear
2:53 PM 10.4 °F -6.6 °F 3.2 °F 73% 30.23 in 10.0 mi NW 16.1 mph - N/A   Clear
3:13 PM 12.2 °F -5.8 °F 1.4 °F 62% 30.23 in 10.0 mi NNW 19.6 mph - N/A   Clear
3:33 PM 12.2 °F -5.3 °F 1.4 °F 62% 30.22 in 10.0 mi NNW 18.4 mph 24.2 mph N/A   Clear
3:53 PM 12.2 °F -4.8 °F 1.4 °F 62% 30.22 in 10.0 mi NNW 17.3 mph 23.0 mph N/A   Clear
4:13 PM 12.2 °F -4.8 °F 1.4 °F 62% 30.21 in 10.0 mi NNW 17.3 mph 21.9 mph N/A   Clear
4:33 PM 12.2 °F -4.8 °F 3.2 °F 67% 30.21 in 10.0 mi NNW 17.3 mph - N/A   Clear
4:53 PM 12.2 °F -4.8 °F 1.4 °F 62% 30.20 in 10.0 mi NNW 17.3 mph - N/A   Clear
5:13 PM 12.2 °F -5.8 °F 1.4 °F 62% 30.20 in 10.0 mi NW 19.6 mph - N/A   Clear
5:33 PM 12.2 °F -3.1 °F 1.4 °F 62% 30.20 in 10.0 mi NNW 13.8 mph - N/A   Clear
5:53 PM 12.2 °F -4.3 °F 1.4 °F 62% 30.19 in 10.0 mi NW 16.1 mph 21.9 mph N/A   Clear
6:13 PM 12.2 °F -2.5 °F 1.4 °F 62% 30.19 in 10.0 mi NW 12.7 mph - N/A   Clear
6:33 PM 10.4 °F -4.8 °F 1.4 °F 67% 30.19 in 10.0 mi NNW 12.7 mph - N/A   Clear
6:53 PM 10.4 °F -3.3 °F 1.4 °F 67% 30.19 in 10.0 mi NNW 10.4 mph - N/A   Clear
7:13 PM 10.4 °F -2.4 °F 1.4 °F 67% 30.19 in 10.0 mi NW 9.2 mph - N/A   Clear
7:33 PM 8.6 °F -5.5 °F 1.4 °F 73% 30.19 in 10.0 mi NNW 10.4 mph - N/A   Clear
7:54 PM 8.6 °F -5.5 °F -0.4 °F 67% 30.19 in 10.0 mi NNW 10.4 mph - N/A   Clear
8:13 PM 8.6 °F -7.0 °F -0.4 °F 67% 30.18 in 10.0 mi NNW 12.7 mph - N/A   Clear
8:33 PM 8.6 °F -5.5 °F -0.4 °F 67% 30.19 in 10.0 mi NNW 10.4 mph - N/A   Clear
8:53 PM 6.8 °F -4.8 °F -2.2 °F 67% 30.19 in 10.0 mi North 6.9 mph - N/A   Clear
9:13 PM 6.8 °F -3.5 °F -2.2 °F 67% 30.20 in 10.0 mi North 5.8 mph - N/A   Clear
9:33 PM 6.8 °F -3.5 °F -2.2 °F 67% 30.19 in 10.0 mi NNW 5.8 mph - N/A   Clear
9:54 PM 5.0 °F -2.1 °F -2.2 °F 72% 30.19 in 10.0 mi NNW 3.5 mph - N/A   Clear
10:13 PM 5.0 °F -4.1 °F -2.2 °F 72% 30.18 in 10.0 mi NNW 4.6 mph - N/A   Clear
10:33 PM 3.2 °F -6.2 °F -2.2 °F 78% 30.18 in 10.0 mi NNW 4.6 mph - N/A   Clear
10:54 PM 3.2 °F -10.3 °F -4.0 °F 72% 30.18 in 10.0 mi NNW 8.1 mph - N/A   Clear
11:13 PM 3.2 °F -11.3 °F -4.0 °F 72% 30.18 in 10.0 mi NNW 9.2 mph - N/A   Clear
11:33 PM 1.4 °F -9.9 °F -4.0 °F 78% 30.17 in 10.0 mi NNW 5.8 mph - N/A   Clear
11:53 PM 1.4 °F -11.3 °F -5.8 °F 72% 30.17 in 10.0 mi NNW 6.9 mph - N/A   Clear